Flag for France Weather past 2 weeks in Mulhouse, France

Now
63 °F

Partly sunny.


Feels Like: 63 °F
Forecast: 46 / 62 °F
Wind: 5 mph from Northeast

Location: Bale-Mulhouse


UV Index: 0 (Low)

Visibility: N/A


Pressure: 29.62 "Hg

Humidity: 49%

Dew point: 43 °F

Location of MulhouseLocation

Historic Weather in Mulhouse

°F

Mulhouse temperature yesterday

Maximum temperature yesterday: 46 °F (at 3:30 PM)
Minimum temperature yesterday: 32 °F (at 2:00 AM)
Average temperature yesterday: 41 °F

Past Weeks' High & Low Weather Summary

 TemperatureHumidityPressure
High73 °F (Apr 7, 5:30 PM)100% (Apr 6, 1:00 AM)30.33 "Hg (Apr 6, 1:00 AM)
Low27 °F (Apr 16, 6:00 AM)24% (Apr 17, 6:00 PM)29.62 "Hg (Apr 20, 4:30 PM)
Average52 °F63%30.07 "Hg
* Reported Apr 5 5:00 PM — Apr 20 5:30 PM, Mulhouse, Weather by CustomWeather, © 2014

Note: Actual official high and low records may vary slightly from our data, if they occured in-between our weather recording intervals... More about our weather records

Advertising

Historic Weather Conditions — Data for Previous 24 hours

 ConditionsComfort  
Time TempWeatherWind HumidityBarometerVisibility
5:30 PM
Apr 20
64 °FPartly sunny.6 mph49%29.62 "HgN/A
5:00 PM64 °FPartly sunny.6 mph49%29.62 "HgN/A
4:30 PM66 °FPartly sunny.5 mph40%29.62 "HgN/A
4:00 PM66 °FPartly sunny.3 mph40%29.65 "HgN/A
3:30 PM64 °FPartly sunny.6 mph43%29.65 "HgN/A
3:00 PM64 °FPartly sunny.2 mph40%29.65 "HgN/A
2:30 PM63 °FPartly sunny.5 mph42%29.65 "HgN/A
2:00 PM61 °FPartly sunny.3 mph45%29.68 "HgN/A
1:30 PM61 °FPartly sunny.3 mph52%29.68 "HgN/A
1:00 PM59 °FPartly sunny.5 mph51%29.68 "HgN/A
12:00 PM57 °FPartly sunny.6 mph51%29.71 "HgN/A
11:30 AM55 °FPartly sunny.5 mph59%29.71 "HgN/A
10:30 AM54 °FPartly sunny.6 mph63%29.71 "HgN/A
10:00 AM52 °FPartly sunny.3 mph72%29.71 "HgN/A
9:30 AM50 °FPartly sunny.3 mph71%29.71 "HgN/A
9:00 AM48 °FBroken clouds.1 mph82%29.71 "Hg6 mi
8:30 AM46 °FBroken clouds.2 mph87%29.71 "Hg6 mi
8:00 AM46 °FPartly sunny.3 mph87%29.71 "Hg5 mi
7:30 AM46 °FOvercast.5 mph87%29.71 "Hg4 mi
7:00 AM46 °FOvercast.3 mph87%29.71 "Hg4 mi
6:30 AM46 °FOvercast.2 mph87%29.71 "Hg5 mi
6:00 AM46 °FPassing clouds.2 mph87%29.71 "Hg5 mi
5:30 AM46 °FOvercast.2 mph87%29.71 "Hg5 mi
5:00 AM46 °FOvercast.3 mph87%29.71 "Hg5 mi
4:30 AM46 °FOvercast.5 mph87%29.71 "Hg5 mi
4:00 AM46 °FOvercast.3 mph87%29.71 "Hg4 mi
3:30 AM46 °FOvercast.2 mph87%29.74 "Hg5 mi
3:00 AM46 °FOvercast.2 mph82%29.74 "Hg5 mi
2:30 AM46 °FOvercast.3 mph87%29.74 "Hg4 mi
2:00 AM45 °FOvercast.3 mph93%29.74 "Hg4 mi
1:30 AM45 °FOvercast.3 mph93%29.74 "Hg4 mi
1:00 AM46 °FMostly cloudy.3 mph87%29.74 "Hg4 mi
12:30 AM46 °FOvercast.3 mph87%29.74 "Hg5 mi
12:00 AM46 °FOvercast.2 mph87%29.77 "Hg5 mi
11:30 PM
Apr 19
46 °FOvercast.2 mph87%29.77 "Hg5 mi
11:00 PM46 °FOvercast.2 mph87%29.77 "Hg5 mi
10:30 PM46 °FPassing clouds.3 mph87%29.77 "Hg6 mi
10:00 PM46 °FPassing clouds.2 mph87%29.80 "Hg6 mi
9:30 PM46 °FPassing clouds.5 mph87%29.80 "Hg5 mi
9:00 PM46 °FPartly sunny.2 mph87%29.80 "HgN/A
8:30 PM46 °FPartly sunny.3 mph87%29.80 "HgN/A
8:00 PM46 °FPartly sunny.3 mph82%29.80 "HgN/A
7:30 PM46 °FPartly sunny.6 mph82%29.80 "HgN/A
7:00 PM46 °FPartly sunny.5 mph82%29.80 "HgN/A
6:30 PM46 °FPartly sunny.6 mph82%29.80 "HgN/A
6:00 PM46 °FPartly sunny.6 mph82%29.80 "HgN/A
Weather by CustomWeather, © 2014

See weather overview